Погода в Жезказгане

Погода в Жезказгане : погода сейчас, прогноз погоды и архив. Всё, что Вы хотите узнать о погоде в Жезказгане!

Хотите узнать прогноз погоды в Жезказгане? Тогда Вам сюда: Погода в Жезказгане

Поиск расширенной информации на нашем сайте:

Другие новости

Новости СМИ2

Главная страница сайта

Новости сайта

03.07.2017

Напоминаем, что на нашем специализированном сайте Метеоцентр.Азия вы можете получить высокодетализированные автоматические прогнозы погоды по пунктам России, СНГ и мира в авиационном формате (включающие направление и скорость ветра, видимость, явления погоды, количество и форму облачности, нижнюю и верхнюю границу облачности).

Рекомендуем: Джинтропин цена подробнее.

Погода в Жезказгане - сегодня

Время (UTC), дата Ветер
(°,м/с) 
Видим.   Явления Облачность Т
(°С)
Тd
(°С)
f(%) Тe
(°С)
Pmin
(гПа)
dP
(гПа)
Po
(мм)
O2
(г/м3)
Тmin Tmax R s Состояние
почвы
03 20.07.17 050 (СВ) 20000 м    5/0 средняя, верхняя 
[Ac lent|Ci fib]
+22.1 +8.2 41 +22  1014.4  0.4  731  271  +14        сухая 
06 20.07.17 030 (СВ) 20000 м    5/5 1000 м 
[Cu hum]
+27.9 +5.4 24 +28  1013.5  -0.2  731  266  +14         
09 20.07.17 040 (СВ) 20000 м    4/4 1000 м 
[Cu hum]
+29.6 +4.5 20 +30  1012.3  -0.9  730  265           
12 20.07.17 070 (В) 20000 м    4/4 1000 м 
[Cu hum]
+30.9 +3.4 17 +31  1010.8  -1.3  729  264           
15 20.07.17 040 (СВ) 20000 м    3/3 600 м 
[Sc diur, vesp]
+29.1 +3.1 19 +29  1010.8  -0.3  729  265    +31       
18 20.07.17 060 (СВ) 20000 м    ясно 
+22.4 +3.4 29 +22  1012.2  0.6  730  271    +31       
21 20.07.17 090 (В) 20000 м    ясно 
+21.4 +7.2 40 +21  1012.2  -0.1  730  271           
00 21.07.17 040 (СВ) 20000 м    ясно 
+15.5 +6.4 55 +17  1013.4  0.3  730  277           
03 21.07.17 тихо ()   20000 м    4/0 средняя 
[Ac lent]
+23.8 +10 42 +25  1013  0.8  730  269           
06 21.07.17 120 (ЮВ) 20000 м    6/3 1000 м средняя 
[Cu hum|Ac lent]
+29.5 +5.6 22 +30  1012.2  -0.1  730  265  +15.4         
09 21.07.17 330 (СЗ) 20000 м    8/4 1000 м средняя 
[Cu hum|Ac lent]
+32.2 +5.1 18 +32  1010.8  -1  730  262           
12 21.07.17 020 (С) 20000 м    6/6 600 м кучево-дожд. 
[Cb cap]
+31.6 +5.3 19 +32  1010.2  -0.7  729  262           
15 21.07.17 040 (СВ) 20000 м    5/5 600 м кучево-дожд. 
[Cb cap]
+29.2 +8.9 28 +30  1009.7  -0.7  729  264    +33.1       
18 21.07.17 060 (СВ) 20000 м    ясно 
+23.3 +11.3 47 +27  1011.3  0.8  729  269    +33.1       
21 21.07.17 080 (В) 20000 м    ясно 
+21.9 +10.3 48 +24  1011.7  0.2  729  270           
00 22.07.17 тихо ()   20000 м    ясно 
+19.1 +10.1 56 +21  1012.7  0.6  730  273           
03 22.07.17 070 (В) 20000 м    3/0 верхняя 
[Ci fib]
+22.9 +10.5 45 +25  1012.8  0.5  730  270  +19        сухая 
06 22.07.17 070 (В) 20000 м    3/0 верхняя 
[Ci fib]
+29.4 +6.1 23 +29  1012.4  0.5  731  265  +19         
09 22.07.17 070 (В) 20000 м    5/3 1000 м верхняя 
[Cu hum|Ci fib]
+32.4 +5.2 18 +32  1011.5  -0.5  730  262           
12 22.07.17 090 (В) 20000 м    6/4 1000 м верхняя 
[Cu hum|Ci fib]
+32.7 +5.1 18 +33  1010.2  -1.3  729  262           
15 22.07.17 050 (СВ) 20000 м    8/5 600 м средняя 
[Sc diur, vesp|Ac lent]
+31.8 +8.1 23 +32  1009.6  -0.6  729  262    +33.6       
18 22.07.17 350 (С) 20000 м    ясно 
+26.7 +9.1 33 +27  1010.5  0.2  729  266    +33.6       
21 22.07.17 230 (ЮЗ) 20000 м    ясно 
+24.4 +9.9 40 +26  1009.8  -0.9  728  268           
00 23.07.17 130 (ЮВ) 20000 м    3/3 600 м 
[Sc]
+19.3 +6 42 +21  1010.4  -0.1  728  273           
03 23.07.17 тихо ()   20000 м    3/0 верхняя 
[Ci fib]
+28.9 +8.4 28 +29  1009.4  0.2  728  264  +19.2        сухая 
Время (UTC), дата Ветер
(°,м/с) 
Видим.   Явления Облачность Т
(°С)
Тd
(°С)
f(%) Тe
(°С)
Pmin
(гПа)
dP
(гПа)
Po
(мм)
O2
(г/м3)
Тmin Tmax R s Состояние
почвы

Для получения пояснительной информации подведите курсор к названию столбца.

ПОГОДА в Жезказгане - архив

Всё, что Вы хотите узнать о погоде в Жезказгане - удобно и подробно!

Выберите нужную дату (начиная с 1 января 2015* года) и нажмите кнопку "Найти".
Будут отображены архивные сводки погоды по пункту Жезказган, начиная с указанной даты.


Отображать данные в формате CSV (для использования в таблицах Excel)


Внимание! Наш архив погоды предназначен исключительно для личного некоммерческого использования в познавательных целях. Если Вам необходимы официальные справки о состоянии погоды (для производственных, юридических, коммерческих и т.п. целей), обращайтесь в органы Росгидромета.

*Примечание: данная дата относится к архиву по метеостанциям СССР (Россия, СНГ, Балтия).
Архив по метеостанциям Зарубежной Европы и Азии (кроме Китая) хранится 10 дней, по другим регионам земного шара (Китай, Африка, Америка, Австралия, Океания) - 1 день.

Жезказган - район местоположения метеостанции


Название, широта, долгота, высота метеостанции:
Жезказган 47.8°ш. 67.7°д. 346 м над ур. моря [Казахстан]

Дополнительная информация

В oтличие oт бoльшинства пoгoдных сайтoв мы публикуем пoдрoбную метеoинфoрмацию в детальнoм прoфессиoнальнoм фoрмате.

Характеристики температуры и влажнoсти вoздуха измеряются на высoте 2 м в тени вдали oт зданий и деревьев.
Скoрoсть ветра измеряется на высoте 10 м (на урoвне рoста челoвека скoрoсть ветра ниже в 1.5-2 раза). Если метеoстанция нахoдится в гoрoде или в лесу, тo скoрoсть ветра занижена на 2-4 м/с пo сравнению с oткрытым местoм. Скoрoсть ветра над акватoриями крупных рек и oзёр, а также на вершинах хoлмoв на 2-5 м/с выше, чем в oбычных услoвиях.
Атмoсфернoе давление в разных тoчках местнoсти мoжет значительнo oтличаться oт давления на метеoстанции, в зависимoсти oт услoвий рельефа (при пoдъёме на 10 м давление пoнижается примернo на 1 мм рт.ст.).